Weather History for KDNV - November, 2012

Change the Weather History Date:

Friday, November 16, 2012

  Actual Average (KLAF) Record (KLAF)
Temperature  
Mean Temperature 38 °F 43 °F  
Max Temperature 51 °F 51 °F - ()
Min Temperature 26 °F 34 °F - ()
Degree Days  
Heating Degree Days 26 22  
Month to date heating degree days 304  
Since 1 July heating degree days 738  
Cooling Degree Days 0 0  
Month to date cooling degree days 0  
Year to date cooling degree days 982  
Moisture  
Dew Point 29 °F    
Average Humidity 75    
Maximum Humidity 96    
Minimum Humidity 42    
Precipitation  
Precipitation 0.00 in 0.10 in - ()
Month to date precipitation 1.55  
Year to date precipitation 32.65  
Sea Level Pressure  
Sea Level Pressure 30.42 in    
Wind  
Wind Speed 1 mph (East)    
Max Wind Speed 5 mph    
Max Gust Speed -    
Visibility 6 miles    
Events      
T = Trace of Precipitation, MM = Missing Value Source: NWS Daily Summary

Daily Weather History Graph

Daily Weather History Graph

Search for Another Location

Airport or City:

Trip Planner

Search our weather history database for the weather conditions in past years. The results will help you decide how hot, cold, wet, or windy it might be!

Date:

Astronomy

Nov. 16, 2012 Rise Set
Actual Time 6:37 AM CST 4:32 PM CST
Civil Twilight 6:08 AM CST 5:01 PM CST
Nautical Twilight 5:35 AM CST 5:34 PM CST
Astronomical Twilight 5:03 AM CST 6:06 PM CST
Moon 9:31 AM CST (11/16) 7:31 PM CST (11/16)
Length of Visible Light 10h 53m
Length of Day
9h 54m
Waxing Crescent, 12% of the Moon is Illuminated
Nov 16
Waxing Crescent
Nov 20
First Quarter
Nov 28
Full
Dec 6
Last Quarter
Dec 13
New

Hourly Weather History & Observations

Time (CST) Temp. Windchill Dew Point Humidity Pressure Visibility Wind Dir Wind Speed Gust Speed Precip Events Conditions
12:15 AM 29.8 °F - 28.2 °F 94% 30.35 in 5.0 mi Calm Calm - N/A   Clear
12:35 AM 28.4 °F - 26.6 °F 93% 30.36 in 5.0 mi Calm Calm - N/A   Clear
12:55 AM 29.3 °F - 27.3 °F 92% 30.36 in 5.0 mi Calm Calm - N/A   Clear
1:15 AM 29.3 °F - 28.0 °F 95% 30.36 in 5.0 mi Calm Calm - N/A   Clear
1:35 AM 28.6 °F - 26.6 °F 92% 30.37 in 5.0 mi Calm Calm - N/A   Clear
1:55 AM 28.8 °F - 27.1 °F 94% 30.38 in 5.0 mi Calm Calm - N/A   Clear
2:15 AM 29.1 °F - 27.5 °F 94% 30.38 in 4.0 mi Calm Calm - N/A   Clear
2:35 AM 28.4 °F - 27.1 °F 95% 30.37 in 4.0 mi Calm Calm - N/A   Clear
2:55 AM 28.0 °F - 26.6 °F 94% 30.37 in 5.0 mi Calm Calm - N/A   Clear
3:15 AM 28.4 °F - 26.6 °F 93% 30.37 in 5.0 mi Calm Calm - N/A   Clear
3:35 AM 27.7 °F - 26.6 °F 96% 30.37 in 4.0 mi Calm Calm - N/A   Clear
3:55 AM 27.7 °F - 26.4 °F 95% 30.38 in 4.0 mi Calm Calm - N/A   Clear
4:15 AM 27.9 °F - 26.8 °F 96% 30.38 in 3.0 mi Calm Calm - N/A   Mist
4:35 AM 29.1 °F - 28.2 °F 96% 30.39 in 4.0 mi Calm Calm - N/A   Mist
4:55 AM 27.3 °F - 26.1 °F 95% 30.39 in 3.0 mi Calm Calm - N/A   Mist
5:15 AM 26.8 °F - 25.7 °F 96% 30.39 in 4.0 mi Calm Calm - N/A   Mist
5:35 AM 27.1 °F - 26.1 °F 96% 30.39 in 3.0 mi Calm Calm - N/A   Clear
5:55 AM 26.6 °F - 25.5 °F 96% 30.40 in 3.0 mi Calm Calm - N/A   Clear
6:15 AM 26.8 °F - 25.7 °F 96% 30.40 in 3.0 mi Calm Calm - N/A   Clear
6:35 AM 26.8 °F - 25.7 °F 96% 30.40 in 4.0 mi Calm Calm - N/A   Clear
6:55 AM 27.3 °F - 26.2 °F 96% 30.41 in 3.0 mi Calm Calm - N/A   Clear
7:15 AM 27.5 °F - 26.1 °F 94% 30.41 in 3.0 mi Calm Calm - N/A   Clear
7:35 AM 29.3 °F - 27.7 °F 94% 30.42 in 2.5 mi Calm Calm - N/A   Clear
7:55 AM 30.7 °F - 29.1 °F 94% 30.43 in 3.0 mi Calm Calm - N/A   Clear
8:15 AM 32.4 °F - 31.3 °F 96% 30.43 in 2.5 mi Calm Calm - N/A   Clear
8:35 AM 34.7 °F - 32.2 °F 91% 30.44 in 3.0 mi Calm Calm - N/A   Clear
8:55 AM 36.5 °F - 33.3 °F 88% 30.44 in 3.0 mi Calm Calm - N/A   Clear
9:15 AM 39.2 °F - 34.5 °F 83% 30.44 in 4.0 mi Calm Calm - N/A   Clear
9:35 AM 40.8 °F - 34.7 °F 79% 30.45 in 4.0 mi Calm Calm - N/A   Haze
9:55 AM 41.9 °F 40.0 °F 34.3 °F 75% 30.45 in 4.0 mi SE 3.5 mph - N/A   Haze
10:15 AM 42.8 °F 41.1 °F 33.6 °F 70% 30.45 in 5.0 mi SE 3.5 mph - N/A   Haze
10:35 AM 44.1 °F - 34.0 °F 68% 30.45 in 5.0 mi Calm Calm - N/A   Haze
10:55 AM 45.1 °F - 34.0 °F 65% 30.45 in 5.0 mi Calm Calm - N/A   Haze
11:15 AM 45.5 °F 43.2 °F 32.9 °F 61% 30.44 in 5.0 mi SE 4.6 mph - N/A   Haze
11:35 AM 46.6 °F - 32.5 °F 58% 30.44 in 5.0 mi ESE 4.6 mph - N/A   Haze
11:55 AM 47.5 °F - 32.4 °F 56% 30.43 in 5.0 mi East 3.5 mph - N/A   Haze
12:15 PM 48.2 °F - 29.7 °F 49% 30.43 in 5.0 mi ESE 3.5 mph - N/A   Haze
12:35 PM 48.4 °F - 30.0 °F 49% 30.43 in 3.0 mi NE 3.5 mph - N/A   Haze
12:55 PM 49.1 °F - 30.7 °F 49% 30.42 in 5.0 mi Calm Calm - N/A   Haze
1:15 PM 49.8 °F - 30.6 °F 48% 30.42 in 7.0 mi NNE 3.5 mph - N/A   Unknown
1:35 PM 50.4 °F - 29.5 °F 45% 30.42 in 7.0 mi Calm Calm - N/A   Clear
1:55 PM 50.5 °F - 28.9 °F 43% 30.42 in 7.0 mi Calm Calm - N/A   Clear
2:15 PM 50.9 °F - 29.7 °F 44% 30.42 in 7.0 mi Calm Calm - N/A   Unknown
2:35 PM 51.1 °F - 29.7 °F 44% 30.42 in 7.0 mi Calm Calm - N/A   Unknown
2:55 PM 51.1 °F - 29.5 °F 43% 30.42 in 7.0 mi Calm Calm - N/A   Clear
3:15 PM 50.7 °F - 28.2 °F 42% 30.43 in 4.0 mi Calm Calm - N/A   Haze
3:35 PM 50.4 °F - 29.8 °F 45% 30.43 in 7.0 mi Calm Calm - N/A   Clear
3:55 PM 49.8 °F - 29.8 °F 46% 30.43 in 7.0 mi Calm Calm - N/A   Clear
4:15 PM 48.6 °F - 30.7 °F 50% 30.43 in 7.0 mi Calm Calm - N/A   Clear
4:35 PM 48.0 °F - 30.0 °F 50% 30.43 in 7.0 mi Calm Calm - N/A   Clear
4:55 PM 43.7 °F 42.1 °F 31.5 °F 62% 30.43 in 7.0 mi ESE 3.5 mph - N/A   Clear
5:15 PM 42.4 °F - 31.6 °F 66% 30.43 in 7.0 mi Calm Calm - N/A   Clear
5:35 PM 42.4 °F - 30.9 °F 64% 30.44 in 10.0 mi Calm Calm - N/A   Clear
5:55 PM 42.6 °F 40.9 °F 30.0 °F 61% 30.44 in 10.0 mi ENE 3.5 mph - N/A   Clear
6:15 PM 41.0 °F 39.0 °F 28.9 °F 62% 30.44 in 10.0 mi ENE 3.5 mph - N/A   Clear
6:35 PM 38.3 °F 34.8 °F 28.6 °F 68% 30.44 in 10.0 mi ENE 4.6 mph - N/A   Clear
6:55 PM 37.0 °F 33.3 °F 28.8 °F 72% 30.44 in 5.0 mi ENE 4.6 mph - N/A   Haze
7:15 PM 36.7 °F 34.1 °F 28.4 °F 72% 30.44 in 5.0 mi ENE 3.5 mph - N/A   Haze
7:55 PM 35.6 °F 32.8 °F 28.2 °F 75% 30.45 in 10.0 mi ENE 3.5 mph - N/A   Clear
8:15 PM 33.3 °F 28.9 °F 28.4 °F 82% 30.45 in 7.0 mi East 4.6 mph - N/A   Clear
8:35 PM 32.7 °F 29.6 °F 29.1 °F 87% 30.45 in 7.0 mi East 3.5 mph - N/A   Clear
8:55 PM 35.8 °F 33.0 °F 28.4 °F 75% 30.46 in 7.0 mi East 3.5 mph - N/A   Clear
9:15 PM 37.0 °F 34.5 °F 28.4 °F 71% 30.45 in 10.0 mi East 3.5 mph - N/A   Clear
9:35 PM 34.5 °F - 28.6 °F 79% 30.45 in 7.0 mi Calm Calm - N/A   Clear
9:55 PM 35.6 °F 32.8 °F 28.2 °F 75% 30.45 in 10.0 mi ESE 3.5 mph - N/A   Clear
10:15 PM 36.9 °F - 28.9 °F 73% 30.45 in 7.0 mi Calm Calm - N/A   Clear
10:35 PM 36.1 °F - 29.1 °F 76% 30.45 in 7.0 mi Calm Calm - N/A   Clear
10:55 PM 36.1 °F - 29.1 °F 76% 30.45 in 7.0 mi Calm Calm - N/A   Clear
11:15 PM 36.5 °F - 29.3 °F 75% 30.45 in 7.0 mi Calm Calm - N/A   Clear
11:35 PM 37.0 °F - 29.5 °F 74% 30.45 in 7.0 mi Calm Calm - N/A   Clear
11:55 PM 36.0 °F - 29.3 °F 77% 30.45 in 7.0 mi Calm Calm - N/A   Clear